Home   Weather   Passo Fundo   Past weeks
Flag for Brazil

Past Weather in Passo Fundo, Rio Grande do Sul, Brazil — Yesterday and Last 2 Weeks

Now
45 °F

Fog.


Feels Like: 40 °F
Forecast: 54 / 37 °F
Wind: 8 mph from Northwest

Location: Porto Alegre Aero-Porto

Current Time: Jul 16, 2019 at 9:28:40 am

Latest Report: Jul 16, 2019 at 9:00 am


Visibility: 1 mi

Pressure: 30.27 "Hg (27.86 "Hg at 680m altitude)

Humidity: 100%

Dew Point: 45 °F

Location of Passo FundoLocation

Past Weather in Passo Fundo — Graph

°F

Passo Fundo Temperature Yesterday

Maximum temperature yesterday: 55 °F (at 1:00 pm)
Minimum temperature yesterday: 46 °F (at 4:00 am)
Average temperature yesterday: 51 °F

High & Low Weather Summary for the Past Weeks

 TemperatureHumidityPressure
High82 °F (Jul 12, 2:00 pm)100% (Jul 2, 12:00 am)30.45 "Hg (Jul 2, 12:00 am)
Low36 °F (Jul 7, 3:00 am)37% (Jul 8, 5:00 pm)29.74 "Hg (Jul 2, 2:00 pm)
Average52 °F82%30.10 "Hg
* Reported Jul 1 8:00 am — Jul 16 8:00 am, Passo Fundo. Weather by CustomWeather, © 2019

Note: Actual official high and low records may vary slightly from our data, if they occured in-between our weather recording intervals... More about our weather records

Advertising

Passo Fundo Weather History for the Previous 24 Hours

Scroll right to see more
 ConditionsComfort  
Time TempWeatherWind HumidityBarometerVisibility
8:00 am
Tue, Jul 16
45 °FFog.6 mph100%30.24 "Hg1 mi
7:00 am45 °FFog.6 mph100%30.21 "Hg1 mi
6:00 am45 °FFog.7 mph100%30.21 "Hg1 mi
5:20 am46 °FFog.7 mph100%30.18 "Hg1 mi
5:00 am46 °FFog.6 mph100%30.18 "Hg2 mi
4:00 am46 °FFog.5 mph100%30.18 "Hg2 mi
3:00 am46 °FClear.5 mph100%30.18 "Hg4 mi
2:00 am48 °FPassing clouds.7 mph100%30.18 "HgN/A
1:00 am50 °FPassing clouds.5 mph94%30.18 "HgN/A
12:00 am52 °FPassing clouds.7 mph94%30.15 "HgN/A
11:00 pm
Mon, Jul 15
54 °FPassing clouds.3 mph88%30.15 "Hg6 mi
10:00 pm52 °FPassing clouds.6 mph94%30.15 "Hg6 mi
9:00 pm52 °FPassing clouds.2 mph88%30.12 "Hg6 mi
8:00 pm52 °FPassing clouds.3 mph88%30.12 "Hg5 mi
7:00 pm54 °FPartly cloudy.6 mph88%30.09 "HgN/A
6:00 pm54 °FPassing clouds.7 mph88%30.09 "HgN/A
5:00 pm55 °FOvercast.9 mph82%30.07 "HgN/A
4:00 pm55 °FOvercast.6 mph82%30.07 "HgN/A
3:00 pm55 °FOvercast.5 mph82%30.07 "HgN/A
2:00 pm55 °FPartly sunny.2 mph77%30.07 "HgN/A
1:00 pm55 °FOvercast.6 mph82%30.09 "HgN/A
12:00 pm54 °FOvercast.3 mph82%30.12 "HgN/A
11:00 am52 °FOvercast.5 mph88%30.12 "HgN/A
10:00 am52 °FOvercast.2 mph88%30.12 "HgN/A
9:00 am50 °FOvercast.2 mph88%30.12 "HgN/A
Weather by CustomWeather, © 2019

See weather overview

LIVE PARTIAL LUNAR ECLIPSE – Watch the eclipse as it happens